Regional Weather Roundup
Issued by NWS

Home | Current Version | Previous Version | Graphics & Text | Print | Product List | Glossary On
Versions: 1 2 3 4 5 6 7 8 9 10 11 12 13 14 15 16 17 18 19 20 21 22 23 24 25 26 27 28 29 30 31 32 33 34 35 36 37 38 39 40 41 42 43 44 45 46 47 48 49 50
000
ASUS45 KCYS 080610
RWRWY

WYOMING REGIONAL WEATHER ROUNDUP
NATIONAL WEATHER SERVICE CHEYENNE WY
1100 PM MST SUN FEB 07 2016

NOTE:  "FAIR" INDICATES FEW OR NO CLOUDS BELOW 12,000 FEET
WITH NO SIGNIFICANT WEATHER AND/OR OBSTRUCTIONS TO VISIBILITY.

WYZ001-080700-
YELLOWSTONE NATIONAL PARK

CITY           SKY/WX    TMP DP  RH WIND       PRES   REMARKS
LK YELLOWSTONE   N/A     22  13  68 CALM      30.55R
6HR MIN TEMP:  21; 6HR MAX TEMP:  27;

W YELLOWSTONE  NOT AVBL

$$
WYZ002>013-054>058-071-098>099-080700-
NORTHERN WYOMING

CITY           SKY/WX    TMP DP  RH WIND       PRES   REMARKS
JACKSON        MOCLDY    19  12  73 NE6       30.56R WCI  11
CODY           FAIR      27  12  54 SE5       30.41F WCI  21
GREYBULL       CLOUDY    30  18  60 S5        30.44F WCI  25
6HR MIN TEMP:  30; 6HR MAX TEMP:  38;

WORLAND        CLOUDY    27  21  78 CALM      30.45R
6HR MIN TEMP:  24; 6HR MAX TEMP:  34;

SHERIDAN       CLOUDY    31  12  45 W9        30.42F WCI  23
6HR MIN TEMP:  27; 6HR MAX TEMP:  35;

BUFFALO        MOCLDY    26  11  52 NW3       30.39F
6HR MIN TEMP:  25; 6HR MAX TEMP:  30;

GILLETTE       FAIR      25   9  50 NW13      30.37F WCI  14
6HR MIN TEMP:  21; 6HR MAX TEMP:  30;

HULETT         FAIR      28  12  50 NW5       30.36S WCI  23
NEWCASTLE      FAIR      23  10  58 NW13      30.34F WCI  11

$$
WYZ014>020-022>026-101>103-080700-
CENTRAL WYOMING

CITY           SKY/WX    TMP DP  RH WIND       PRES   REMARKS
BIG PINEY      FAIR      26  14  60 N15       30.49R WCI  14
6HR MIN TEMP:  23; 6HR MAX TEMP:  33;

PINEDALE       FAIR      28  14  54 W22G28    30.47S WCI  15
DUBOIS         MOCLDY    32  12  43 NW25      30.45R WCI  19
LANDER         FAIR      18  10  71 CALM      30.42R
6HR MIN TEMP:  17; 6HR MAX TEMP:  30;

RIVERTON       CLOUDY    22  13  68 NW6       30.44R WCI  14
6HR MIN TEMP:  17; 6HR MAX TEMP:  30;

CASPER         MOCLDY    19   8  62 W10       30.42R WCI   7
6HR MIN TEMP:  16; 6HR MAX TEMP:  24;

DOUGLAS        FAIR      17   9  70 NW10        N/A  WCI   5
6HR MIN TEMP:  16; 6HR MAX TEMP:  29;


$$
WYZ021-027>030-104>119-080700-
SOUTHERN WYOMING

CITY           SKY/WX    TMP DP  RH WIND       PRES   REMARKS
EVANSTON       FAIR      24  13  62 S7        30.58F WCI  16
6HR MIN TEMP:  20; 6HR MAX TEMP:  28;

FORT BRIDGER   CLEAR     28  18  64 W23       30.57F WCI  14
ROCK SPRINGS   FAIR      28  18  66 W28       30.47S WCI  13
6HR MIN TEMP:  27; 6HR MAX TEMP:  31;

DIXON          CLOUDY    15  10  81 SE3       30.54S
RAWLINS        CLOUDY    23  16  74 W12       30.44R WCI  12
6HR MIN TEMP:  22; 6HR MAX TEMP:  30;

SARATOGA       CLOUDY    28  21  74 W21G28    30.44F WCI  15
LARAMIE          N/A     17  12  80 N8        30.34S WCI   7
6HR MIN TEMP:  14; 6HR MAX TEMP:  25;

CHEYENNE       CLOUDY    17   9  70 N9        30.34S WCI   6
6HR MIN TEMP:  17; 6HR MAX TEMP:  26;

TORRINGTON     FAIR      24  11  57 W7        30.40R WCI  16
6HR MIN TEMP:  24; 6HR MAX TEMP:  31;

PINE BLUFFS    FAIR      19  12  73 NW8       30.38S WCI   9

$$



USA.gov is the U.S. government's official web portal to all federal, state and local government web resources and services.